H1 CPF 2 NER 2022 8 24 9 236 01 glonass106 H2 0705201 9106 32275 2022 8 24 0 0 0 2022 8 27 23 45 0 900 1 1 0 0 0 1 H9 10 0 59815 0.00000 0 -6399407.355 -14110670.693 -20262893.709 10 0 59815 900.00000 0 -4163904.174 -12795589.145 -21671057.701 10 0 59815 1800.00000 0 -1700050.372 -11595617.634 -22658397.791 10 0 59815 2700.00000 0 936781.247 -10555337.305 -23205807.959 10 0 59815 3600.00000 0 3683425.381 -9709111.031 -23302720.902 10 0 59815 4500.00000 0 6471312.997 -9079697.692 -22947307.638 10 0 59815 5400.00000 0 9229089.386 -8677371.407 -22146508.857 10 0 59815 6300.00000 0 11885353.713 -8499581.763 -20915897.739 10 0 59815 7200.00000 0 14371407.109 -8531168.425 -19279376.999 10 0 59815 8100.00000 0 16623896.106 -8745120.427 -17268715.895 10 0 59815 9000.00000 0 18587242.518 -9103847.753 -14922935.829 10 0 59815 9900.00000 0 20215759.375 -9560911.404 -12287556.053 10 0 59815 10800.00000 0 21475365.668 -10063138.961 -9413713.618 10 0 59815 11700.00000 0 22344829.016 -10553036.411 -6357174.152 10 0 59815 12600.00000 0 22816484.944 -10971394.469 -3177252.371 10 0 59815 13500.00000 0 22896403.268 -11259979.305 64336.975 10 0 59815 14400.00000 0 22603995.080 -11364193.863 3304675.519 10 0 59815 15300.00000 0 21971077.253 -11235597.056 6480861.721 10 0 59815 16200.00000 0 21040434.128 -10834173.956 9531231.505 10 0 59815 17100.00000 0 19863937.122 -10130260.456 12396555.295 10 0 59815 18000.00000 0 18500301.509 -9106040.396 15021187.923 10 0 59815 18900.00000 0 17012574.831 -7756551.006 17354149.074 10 0 59815 19800.00000 0 15465462.473 -6090153.135 19350113.302 10 0 59815 20700.00000 0 13922602.746 -4128445.217 20970290.420 10 0 59815 21600.00000 0 12443905.698 -1905623.082 22183179.410 10 0 59815 22500.00000 0 11083067.074 532689.122 22965181.386 10 0 59815 23400.00000 0 9885361.443 3131089.472 23301059.868 10 0 59815 24300.00000 0 8885806.706 5826462.899 23184239.507 10 0 59815 25200.00000 0 8107776.580 8550375.177 22616937.430 10 0 59815 26100.00000 0 7562118.999 11231697.631 21610124.396 10 0 59815 27000.00000 0 7246817.083 13799354.263 20183316.206 10 0 59815 27900.00000 0 7147206.665 16185077.611 18364198.872 10 0 59815 28800.00000 0 7236740.984 18326058.944 16188094.330 10 0 59815 29700.00000 0 7478270.039 20167382.609 13697276.544 10 0 59815 30600.00000 0 7825780.381 21664143.101 10940150.824 10 0 59815 31500.00000 0 8226521.490 22783156.360 7970312.150 10 0 59815 32400.00000 0 8623428.388 23504193.844 4845500.732 10 0 59815 33300.00000 0 8957737.381 23820687.829 1626475.342 10 0 59815 34200.00000 0 9171683.500 23739878.643 -1624173.123 10 0 59815 35100.00000 0 9211164.606 23282398.200 -4843244.209 10 0 59815 36000.00000 0 9028258.477 22481308.036 -7968162.054 10 0 59815 36900.00000 0 8583485.513 21380633.100 -10938196.350 10 0 59815 37800.00000 0 7847720.484 20033453.933 -13695645.761 10 0 59815 38700.00000 0 6803671.776 18499638.293 -16186960.385 10 0 59815 39600.00000 0 5446865.042 16843308.403 -18363781.174 10 0 59815 40500.00000 0 3786089.138 15130150.766 -20183876.268 10 0 59815 41400.00000 0 1843284.922 13424681.704 -21611956.424 10 0 59815 42300.00000 0 -347119.020 11787583.330 -22620354.241 10 0 59815 43200.00000 0 -2739396.652 10273221.141 -23189554.756 10 0 59815 44100.00000 0 -5278191.826 8927446.503 -23308567.887 10 0 59815 45000.00000 0 -7900593.897 7785775.096 -22975136.163 10 0 59815 45900.00000 0 -10538536.096 6872016.420 -22195774.296 10 0 59815 46800.00000 0 -13121417.801 6197410.527 -20985640.173 10 0 59815 47700.00000 0 -15578842.522 5760307.015 -19368239.859 10 0 59815 48600.00000 0 -17843358.681 5546398.661 -17374972.236 10 0 59815 49500.00000 0 -19853090.032 5529498.959 -15044521.746 10 0 59815 50400.00000 0 -21554146.891 5672830.250 -12422110.612 10 0 59815 51300.00000 0 -22902718.391 5930767.685 -9558624.550 10 0 59815 52200.00000 0 -23866758.989 6250965.211 -6509628.425 10 0 59815 53100.00000 0 -24427199.148 6576773.666 -3334290.664 10 0 59815 54000.00000 0 -24578629.938 6849848.682 -94237.044 10 0 59815 54900.00000 0 -24329433.137 7012837.984 3147644.012 10 0 59815 55800.00000 0 -23701351.590 7012034.228 6328421.292 10 0 59815 56700.00000 0 -22728518.058 6799880.830 9386342.030 10 0 59815 57600.00000 0 -21455983.461 6337224.332 12262030.638 10 0 59815 58500.00000 0 -19937806.379 5595217.496 14899641.435 10 0 59815 59400.00000 0 -18234784.103 4556791.928 17247942.937 10 0 59815 60300.00000 0 -16411920.320 3217637.092 19261312.684 10 0 59815 61200.00000 0 -14535735.591 1586643.314 20900623.332 10 0 59815 62100.00000 0 -12671533.086 -314211.231 22134003.008 10 0 59815 63000.00000 0 -10880733.776 -2450526.346 22937455.414 10 0 59815 63900.00000 0 -9218392.310 -4776672.052 23295327.735 10 0 59815 64800.00000 0 -7730997.051 -7237458.993 23200617.412 10 0 59815 65700.00000 0 -6454645.849 -9770218.711 22655111.766 10 0 59815 66600.00000 0 -5413673.446 -12307208.250 21669357.514 10 0 59815 67500.00000 0 -4619787.461 -14778239.936 20262460.463 10 0 59815 68400.00000 0 -4071748.669 -17113427.520 18461718.711 10 0 59815 69300.00000 0 -3755608.507 -19245934.636 16302095.999 10 0 59815 70200.00000 0 -3645493.275 -21114611.209 13825544.885 10 0 59815 71100.00000 0 -3704901.442 -22666407.771 11080192.432 10 0 59815 72000.00000 0 -3888458.781 -23858466.612 8119404.043 10 0 59815 72900.00000 0 -4144056.493 -24659802.125 5000743.583 10 0 59815 73800.00000 0 -4415281.188 -25052499.811 1784850.194 10 0 59815 74700.00000 0 -4644033.029 -25032383.616 -1465745.816 10 0 59815 75600.00000 0 -4773220.302 -24609123.761 -4687844.383 10 0 59815 76500.00000 0 -4749415.324 -23805780.893 -7818809.929 10 0 59815 77400.00000 0 -4525358.350 -22657806.249 -10797793.581 10 0 59815 78300.00000 0 -4062202.611 -21211540.533 -13566919.026 10 0 59815 79200.00000 0 -3331404.765 -19522275.305 -16072408.487 10 0 59815 80100.00000 0 -2316180.229 -17651958.981 -18265626.684 10 0 59815 81000.00000 0 -1012461.378 -15666644.256 -20104022.602 10 0 59815 81900.00000 0 570682.353 -13633784.212 -21551951.182 10 0 59815 82800.00000 0 2411180.690 -11619490.437 -22581359.466 10 0 59815 83700.00000 0 4474649.997 -9685867.509 -23172324.684 10 0 59815 84600.00000 0 6715604.001 -7888534.618 -23313434.577 10 0 59815 85500.00000 0 9079137.891 -6274437.017 -23002003.269 10 0 59816 0.00000 0 11503016.198 -4880037.632 -22244119.197 10 0 59816 900.00000 0 13920079.666 -3729962.371 -21054523.978 10 0 59816 1800.00000 0 16260868.437 -2836156.278 -19456325.833 10 0 59816 2700.00000 0 18456357.550 -2197581.994 -17480551.626 10 0 59816 3600.00000 0 20440688.369 -1800473.888 -15165546.809 10 0 59816 4500.00000 0 22153784.022 -1619135.360 -12556234.162 10 0 59816 5400.00000 0 23543740.133 -1617245.115 -9703245.280 10 0 59816 6300.00000 0 24568891.442 -1749616.717 -6661941.146 10 0 59816 7200.00000 0 25199468.151 -1964336.817 -3491340.518 10 0 59816 8100.00000 0 25418772.899 -2205191.377 -252976.658 10 0 59816 9000.00000 0 25223829.110 -2414277.098 2990295.530 10 0 59816 9900.00000 0 24625473.551 -2534687.336 6175518.649 10 0 59816 10800.00000 0 23647889.164 -2513158.573 9240854.502 10 0 59816 11700.00000 0 22327597.706 -2302565.094 12126784.444 10 0 59816 12600.00000 0 20711954.350 -1864155.878 14777264.848 10 0 59816 13500.00000 0 18857207.243 -1169438.521 17140815.216 10 0 59816 14400.00000 0 16826203.144 -201629.823 19171517.807 10 0 59816 15300.00000 0 14685835.032 1043389.090 20829909.422 10 0 59816 16200.00000 0 12504338.168 2556654.529 22083748.248 10 0 59816 17100.00000 0 10348547.285 4316257.804 22908641.074 10 0 59816 18000.00000 0 8281229.101 6288034.274 23288518.861 10 0 59816 18900.00000 0 6358601.067 8426776.497 23215951.547 10 0 59816 19800.00000 0 4628139.356 10677922.287 22692295.935 10 0 59816 20700.00000 0 3126767.133 12979648.377 21727673.587 10 0 59816 21600.00000 0 1879498.157 15265283.498 20340778.802 10 0 59816 22500.00000 0 898591.799 17465941.033 18558519.906 10 0 59816 23400.00000 0 183254.257 19513261.867 16415500.281 10 0 59816 24300.00000 0 -280102.253 21342153.209 13953348.666 10 0 59816 25200.00000 0 -517053.924 22893408.938 11219911.284 10 0 59816 26100.00000 0 -563848.119 24116101.573 8268321.236 10 0 59816 27000.00000 0 -465630.861 24969645.420 5155963.238 10 0 59816 27900.00000 0 -274294.829 25425444.021 1943353.959 10 0 59816 28800.00000 0 -46039.844 25468052.414 -1307039.698 10 0 59816 29700.00000 0 161249.939 25095805.280 -4532020.806 10 0 59816 30600.00000 0 290700.003 24320884.553 -7668896.664 10 0 59816 31500.00000 0 289095.603 23168823.867 -10656702.224 10 0 59816 32400.00000 0 109374.942 21677471.046 -13437388.331 10 0 59816 33300.00000 0 -287140.887 19895452.654 -15956951.195 10 0 59816 34200.00000 0 -928876.107 17880205.603 -18166480.883 10 0 59816 35100.00000 0 -1832566.181 15695658.739 -20023108.558 10 0 59816 36000.00000 0 -3002322.451 13409661.773 -21490834.420 10 0 59816 36900.00000 0 -4429235.262 11091269.195 -22541220.815 10 0 59816 37800.00000 0 -6091532.786 8807992.354 -23153937.775 10 0 59816 38700.00000 0 -7955289.451 6623133.849 -23317151.219 10 0 59816 39600.00000 0 -9975654.945 4593314.622 -23027746.922 10 0 59816 40500.00000 0 -12098553.153 2766295.716 -22291386.558 10 0 59816 41400.00000 0 -14262780.951 1179184.194 -21122395.053 10 0 59816 42300.00000 0 -16402420.001 -142903.255 -19543481.575 10 0 59816 43200.00000 0 -18449461.840 -1187664.738 -17585299.474 10 0 59816 44100.00000 0 -20336537.484 -1955892.528 -15285853.368 10 0 59816 45000.00000 0 -21999638.222 -2461196.917 -12689764.483 10 0 59816 45900.00000 0 -23380714.506 -2729187.282 -9847407.981 10 0 59816 46800.00000 0 -24430044.610 -2796145.729 -6813938.539 10 0 59816 47700.00000 0 -25108274.129 -2707249.854 -3648222.745 10 0 59816 48600.00000 0 -25388040.911 -2514420.185 -411698.801 10 0 59816 49500.00000 0 -25255117.234 -2273883.637 2832814.474 10 0 59816 50400.00000 0 -24709021.107 -2043556.335 6022336.094 10 0 59816 51300.00000 0 -23763070.788 -1880356.810 9094945.038 10 0 59816 52200.00000 0 -22443879.931 -1837563.605 11990982.196 10 0 59816 53100.00000 0 -20790314.188 -1962329.401 14654208.527 10 0 59816 54000.00000 0 -18851952.663 -2293457.274 17032896.920 10 0 59816 54900.00000 0 -16687118.255 -2859533.590 19080836.550 10 0 59816 55800.00000 0 -14360558.901 -3677497.089 20758230.286 10 0 59816 56700.00000 0 -11940876.241 -4751705.367 22032467.935 10 0 59816 57600.00000 0 -9497808.503 -6073539.137 22878760.548 10 0 59816 58500.00000 0 -7099480.538 -7621562.129 23280623.607 10 0 59816 59400.00000 0 -4809735.061 -9362231.251 23230199.864 10 0 59816 60300.00000 0 -2685655.692 -11251128.660 22728415.514 10 0 59816 61200.00000 0 -775384.517 -13234665.426 21784966.479 10 0 59816 62100.00000 0 883675.529 -15252186.731 20418134.703 10 0 59816 63000.00000 0 2266199.110 -17238391.547 18654437.530 10 0 59816 63900.00000 0 3359762.456 -19125966.200 16528116.441 10 0 59816 64800.00000 0 4165119.191 -20848322.079 14080474.507 10 0 59816 65700.00000 0 4695917.230 -22342322.933 11359074.951 10 0 59816 66600.00000 0 4977869.515 -23550887.236 8416816.174 10 0 59816 67500.00000 0 5047414.455 -24425356.145 5310901.130 10 0 59816 68400.00000 0 4949923.606 -24927527.125 2101721.273 10 0 59816 69300.00000 0 4737533.332 -25031267.265 -1148322.731 10 0 59816 70200.00000 0 4466693.267 -24723638.048 -4376039.955 10 0 59816 71100.00000 0 4195536.414 -24005483.926 -7518683.428 10 0 59816 72000.00000 0 3981183.262 -22891459.854 -10515174.756 10 0 59816 72900.00000 0 3877094.970 -21409496.620 -13307294.701 10 0 59816 73800.00000 0 3930588.464 -19599726.633 -15840816.107 10 0 59816 74700.00000 0 4180619.112 -17512915.514 -18066556.858 10 0 59816 75600.00000 0 4655925.166 -15208465.490 -19941332.497 10 0 59816 76500.00000 0 5373612.608 -12752074.307 -21428790.364 10 0 59816 77400.00000 0 6338240.304 -10213147.566 -22500109.566 10 0 59816 78300.00000 0 7541444.228 -7662072.251 -23134553.953 10 0 59816 79200.00000 0 8962116.887 -5167464.590 -23319868.147 10 0 59816 80100.00000 0 10567134.815 -2793506.176 -23052509.630 10 0 59816 81000.00000 0 12312604.201 -597478.219 -22337713.013 10 0 59816 81900.00000 0 14145573.178 1372404.713 -21189385.587 10 0 59816 82800.00000 0 16006139.847 3078772.543 -19629836.326 10 0 59816 83700.00000 0 17829868.640 4496416.513 -17689343.511 10 0 59816 84600.00000 0 19550414.772 5613091.534 -15405569.016 10 0 59816 85500.00000 0 21102247.554 6429771.819 -12822830.241 10 0 59817 0.00000 0 22423359.081 6960350.407 -9991243.583 10 0 59817 900.00000 0 23457845.843 7230796.511 -6965753.979 10 0 59817 1800.00000 0 24158253.479 7277806.393 -3805072.941 10 0 59817 2700.00000 0 24487588.716 7147006.318 -570540.298 10 0 59817 3600.00000 0 24420912.022 6890783.204 2675064.584 10 0 59817 4500.00000 0 23946444.522 6565835.388 5868740.423 10 0 59817 5400.00000 0 23066142.162 6230547.361 8948486.495 10 0 59817 6300.00000 0 21795712.462 5942299.806 11854506.081 10 0 59817 7200.00000 0 20164072.596 5754828.985 14530367.274 10 0 59817 8100.00000 0 18212270.934 5715747.462 16924098.542 10 0 59817 9000.00000 0 15991916.521 5864331.312 18989197.820 10 0 59817 9900.00000 0 13563181.637 6229667.687 20685535.524 10 0 59817 10800.00000 0 10992460.187 6829241.513 21980134.212 10 0 59817 11700.00000 0 8349778.975 7668021.590 22847809.965 10 0 59817 12600.00000 0 5706069.143 8738085.471 23271663.179 10 0 59817 13500.00000 0 3130410.736 10018799.921 23243409.413 10 0 59817 14400.00000 0 687364.396 11477550.542 22763543.817 10 0 59817 15300.00000 0 -1565499.346 13070991.100 21841335.778 10 0 59817 16200.00000 0 -3579770.994 14746761.290 20494653.537 10 0 59817 17100.00000 0 -5317983.485 16445601.943 18749621.691 10 0 59817 18000.00000 0 -6754930.314 18103779.728 16640117.668 10 0 59817 18900.00000 0 -7878466.114 19655720.168 14207116.410 10 0 59817 19800.00000 0 -8689756.951 21036738.725 11497895.469 10 0 59817 20700.00000 0 -9202970.646 22185755.126 8565115.726 10 0 59817 21600.00000 0 -9444421.130 23047876.541 5465795.492 10 0 59817 22500.00000 0 -9451203.901 23576740.456 2260198.099 10 0 59817 23400.00000 0 -9269381.201 23736517.990 -989344.883 10 0 59817 24300.00000 0 -8951794.792 23503492.722 -4219651.313 10 0 59817 25200.00000 0 -8555599.921 22867147.958 -7367922.616 10 0 59817 26100.00000 0 -8139625.939 21830716.277 -10372969.527 10 0 59817 27000.00000 0 -7761676.242 20411167.939 -13176404.977 10 0 59817 27900.00000 0 -7475882.611 18638638.529 -15723780.435 10 0 59817 28800.00000 0 -7330226.440 16555319.860 -17965643.314 10 0 59817 29700.00000 0 -7364332.024 14213860.655 -19858494.972 10 0 59817 30600.00000 0 -7607625.283 11675343.932 -21365631.053 10 0 59817 31500.00000 0 -8077935.643 9006925.566 -22457848.330 10 0 59817 32400.00000 0 -8780599.965 6279232.240 -23114005.110 10 0 59817 33300.00000 0 -9708106.260 3563626.730 -23321425.082 10 0 59817 34200.00000 0 -10840292.220 929453.673 -23076137.489 10 0 59817 35100.00000 0 -12145090.457 -1558620.592 -22382949.584 10 0 59817 36000.00000 0 -13579789.579 -3843064.678 -21255350.348 10 0 59817 36900.00000 0 -15092758.687 -5875634.344 -19715247.494 10 0 59817 37800.00000 0 -16625563.639 -7619132.094 -17792542.770 10 0 59817 38700.00000 0 -18115387.044 -9048702.323 -15524553.503 10 0 59817 39600.00000 0 -19497651.097 -10152609.268 -12955291.182 10 0 59817 40500.00000 0 -20708733.806 -10932466.633 -10134610.595 10 0 59817 41400.00000 0 -21688665.008 -11402910.445 -7117245.512 10 0 59817 42300.00000 0 -22383689.125 -11590729.879 -3961749.315 10 0 59817 43200.00000 0 -22748587.010 -11533493.516 -729360.845 10 0 59817 44100.00000 0 -22748659.063 -11277729.628 2517182.644 10 0 59817 45000.00000 0 -22361285.874 -10876737.777 5714862.266 10 0 59817 45900.00000 0 -21577000.222 -10388124.617 8801600.297 10 0 59817 46800.00000 0 -20400024.724 -9871168.350 11717465.099 10 0 59817 47700.00000 0 -18848251.798 -9384123.474 14405834.500 10 0 59817 48600.00000 0 -16952665.975 -8981579.972 16814495.021 10 0 59817 49500.00000 0 -14756231.867 -8711988.727 18896655.599 10 0 59817 50400.00000 0 -12312293.486 -8615457.834 20611856.156 10 0 59817 51300.00000 0 -9682550.905 -8721913.124 21926753.594 10 0 59817 52200.00000 0 -6934697.760 -9049700.823 22815770.222 10 0 59817 53100.00000 0 -4139817.254 -9604691.700 23261592.124 10 0 59817 54000.00000 0 -1369644.200 -10379925.107 23255508.015 10 0 59817 54900.00000 0 1306193.808 -11355808.637 22797581.944 10 0 59817 55800.00000 0 3822842.020 -12500865.916 21896656.333 10 0 59817 56700.00000 0 6122680.819 -13773002.010 20570184.933 10 0 59817 57600.00000 0 8157482.828 -15121234.184 18843898.457 10 0 59817 58500.00000 0 9890175.535 -16487815.999 16751308.811 10 0 59817 59400.00000 0 11296136.559 -17810666.034 14333061.001 10 0 59817 60300.00000 0 12363968.095 -19025999.378 11636144.760 10 0 59817 61200.00000 0 13095718.806 -20071051.131 8712980.978 10 0 59817 62100.00000 0 13506544.734 -20886776.993 5620400.570 10 0 59817 63000.00000 0 13623824.443 -21420416.644 2418535.772 10 0 59817 63900.00000 0 13485766.711 -21627811.201 -830354.053 10 0 59817 64800.00000 0 13139570.654 -21475376.305 -4063098.706 10 0 59817 65700.00000 0 12639217.172 -20941646.920 -7216851.124 10 0 59817 66600.00000 0 12042986.191 -20018328.085 -10230314.193 10 0 59817 67500.00000 0 11410805.718 -18710806.826 -13044935.879 10 0 59817 68400.00000 0 10801545.702 -17038103.266 -15606048.938 10 0 59817 69300.00000 0 10270371.708 -15032262.749 -17863932.731 10 0 59817 70200.00000 0 9866270.618 -12737214.238 -19774776.550 10 0 59817 71100.00000 0 9629852.938 -10207142.590 -21301526.099 10 0 59817 72000.00000 0 9591524.320 -7504442.544 -22414597.171 10 0 59817 72900.00000 0 9770103.117 -4697339.431 -23092443.429 10 0 59817 73800.00000 0 10171941.854 -1857275.164 -23321968.061 10 0 59817 74700.00000 0 10790589.296 943832.314 -23098772.023 10 0 59817 75600.00000 0 11607007.112 3636343.163 -22427234.723 10 0 59817 76500.00000 0 12590332.047 6155549.979 -21320425.921 10 0 59817 77400.00000 0 13699151.707 8444123.148 -19799850.771 10 0 59817 78300.00000 0 14883240.692 10454246.889 -17895032.846 10 0 59817 79200.00000 0 16085684.636 12149358.427 -15642942.933 10 0 59817 80100.00000 0 17245303.362 13505419.052 -13087284.294 10 0 59817 81000.00000 0 18299271.803 14511665.327 -10277647.761 10 0 59817 81900.00000 0 19185828.868 15170810.179 -7268552.541 10 0 59817 82800.00000 0 19846960.474 15498686.455 -4118391.026 10 0 59817 83700.00000 0 20230943.904 15523348.877 -888297.833 10 0 59817 84600.00000 0 20294646.187 15283672.908 2359035.178 10 0 59817 85500.00000 0 20005479.327 14827510.197 5560574.725 10 0 59818 0.00000 0 19342929.630 14209478.922 8654168.863 10 0 59818 900.00000 0 18299595.556 13488482.325 11579754.387 10 0 59818 1800.00000 0 16881690.644 12725061.307 14280521.082 10 0 59818 2700.00000 0 15108988.145 11978691.937 16704015.700 10 0 59818 3600.00000 0 13014209.481 11305142.855 18803160.024 10 0 59818 4500.00000 0 10641880.757 10754003.838 20537164.987 10 0 59818 5400.00000 0 8046704.067 10366489.848 21872323.019 10 0 59818 6300.00000 0 5291510.416 10173613.207 22782663.480 10 0 59818 7200.00000 0 2444878.615 10194801.042 23250458.609 10 0 59818 8100.00000 0 -421481.798 10437016.442 23266570.348 10 0 59818 9000.00000 0 -3235475.706 10894420.713 22830631.283 10 0 59818 9900.00000 0 -5927382.268 11548591.402 21951056.038 10 0 59818 10800.00000 0 -8432515.516 12369287.520 20644882.566 10 0 59818 11700.00000 0 -10693675.721 13315730.378 18937445.923 10 0 59818 12600.00000 0 -12663289.953 14338346.707 16861890.300 10 0 59818 13500.00000 0 -14305153.185 15380901.128 14458528.228 10 0 59818 14400.00000 0 -15595697.789 16382928.428 11774058.834 10 0 59818 15300.00000 0 -16524738.828 17282363.117 8860660.086 10 0 59818 16200.00000 0 -17095664.617 18018255.166 5774972.526 10 0 59818 17100.00000 0 -17325065.329 18533456.826 2576994.350 10 0 59818 18000.00000 0 -17241816.148 18777166.451 -671090.161 10 0 59818 18900.00000 0 -16885654.654 18707221.103 -3906125.508 10 0 59818 19800.00000 0 -16305313.552 18292040.321 -7065218.769 10 0 59818 20700.00000 0 -15556288.708 17512138.218 -10086967.435 10 0 59818 21600.00000 0 -14698337.836 16361139.404 -12912656.760 10 0 59818 22500.00000 0 -13792816.431 14846255.315 -15487402.804 10 0 59818 23400.00000 0 -12899964.172 12988200.448 -17761218.610 10 0 59818 24300.00000 0 -12076256.764 10820551.568 -19689982.852 10 0 59818 25200.00000 0 -11371935.063 8388576.337 -21236292.438 10 0 59818 26100.00000 0 -10828815.478 5747580.020 -22370183.014 10 0 59818 27000.00000 0 -10478473.478 2960838.801 -23069704.136 10 0 59818 27900.00000 0 -10340876.087 97205.221 -23321338.724 10 0 59818 28800.00000 0 -10423520.265 -2771515.215 -23120259.375 10 0 59818 29700.00000 0 -10721112.813 -5573308.120 -22470417.242 10 0 59818 30600.00000 0 -11215804.785 -8238702.000 -21384462.124 10 0 59818 31500.00000 0 -11877970.264 -10703414.428 -19883495.524 10 0 59818 32400.00000 0 -12667496.663 -12910783.881 -17996661.412 10 0 59818 33300.00000 0 -13535532.398 -14813887.327 -15760582.315 10 0 59818 34200.00000 0 -14426618.641 -16377256.486 -13218651.303 10 0 59818 35100.00000 0 -15281115.718 -17578122.397 -10420193.093 10 0 59818 36000.00000 0 -16037822.270 -18407137.354 -7419510.040 10 0 59818 36900.00000 0 -16636677.004 -18868544.904 -4274831.195 10 0 59818 37800.00000 0 -17021429.230 -18979791.682 -1047184.529 10 0 59818 38700.00000 0 -17142165.426 -18770598.102 2200785.932 10 0 59818 39600.00000 0 -16957584.993 -18281527.604 5406035.003 10 0 59818 40500.00000 0 -16436928.731 -17562115.204 8506339.570 10 0 59818 41400.00000 0 -15561478.018 -16668634.623 11441506.275 10 0 59818 42300.00000 0 -14325560.743 -15661598.364 14154539.933 10 0 59818 43200.00000 0 -12737020.611 -14603096.354 16592749.935 10 0 59818 44100.00000 0 -10817128.948 -13554085.376 18708773.174 10 0 59818 45000.00000 0 -8599941.515 -12571743.513 20461493.628 10 0 59818 45900.00000 0 -6131125.916 -11707000.938 21816840.999 10 0 59818 46800.00000 0 -3466307.277 -11002350.883 22748453.110 10 0 59818 47700.00000 0 -668999.970 -10490032.760 23238189.402 10 0 59818 48600.00000 0 2191789.691 -10190663.795 23276485.708 10 0 59818 49500.00000 0 5044191.204 -10112376.689 22862543.447 10 0 59818 50400.00000 0 7816219.676 -10250499.698 22004349.381 10 0 59818 51300.00000 0 10438534.248 -10587792.717 20718525.244 10 0 59818 52200.00000 0 12847091.121 -11095229.750 19030009.660 10 0 59818 53100.00000 0 14985581.225 -11733295.057 16971577.976 10 0 59818 54000.00000 0 16807551.464 -12453738.622 14583208.728 10 0 59818 54900.00000 0 18278121.391 -13201717.070 11911308.527 10 0 59818 55800.00000 0 19375223.867 -13918229.625 9007810.110 10 0 59818 56700.00000 0 20090318.250 -14542746.034 5929160.939 10 0 59818 57600.00000 0 20428546.708 -15015914.935 2735222.133 10 0 59818 58500.00000 0 20408327.761 -15282237.547 -511900.391 10 0 59818 59400.00000 0 20060404.997 -15292592.834 -3749069.257 10 0 59818 60300.00000 0 19426392.034 -15006506.503 -6913349.111 10 0 59818 61200.00000 0 18556876.059 -14394067.078 -9943235.389 10 0 59818 62100.00000 0 17509161.048 -13437407.292 -12779853.784 10 0 59818 63000.00000 0 16344746.780 -12131687.529 -15368106.560 10 0 59818 63900.00000 0 15126650.773 -10485539.258 -17657743.052 10 0 59818 64800.00000 0 13916686.561 -8520949.210 -19604333.583 10 0 59818 65700.00000 0 12772813.144 -6272588.597 -21170128.171 10 0 59818 66600.00000 0 11746667.118 -3786614.978 -22324783.829 10 0 59818 67500.00000 0 10881380.806 -1118996.237 -23045947.082 10 0 59818 68400.00000 0 10209777.459 1666574.053 -23319681.203 10 0 59818 69300.00000 0 9753018.491 4501083.777 -23140730.591 10 0 59818 70200.00000 0 9519758.654 7312832.661 -22512617.839 10 0 59818 71100.00000 0 9505843.772 10030177.582 -21447572.032 10 0 59818 72000.00000 0 9694562.970 12584279.649 -19966289.853 10 0 59818 72900.00000 0 10057444.279 14911740.060 -18097534.090 10 0 59818 73800.00000 0 10555559.766 16957016.192 -15877577.050 10 0 59818 74700.00000 0 11141285.172 18674518.337 -13349499.285 10 0 59818 75600.00000 0 11760439.904 20030300.743 -10562356.735 10 0 59818 76500.00000 0 12354717.320 21003277.247 -7570231.944 10 0 59818 77400.00000 0 12864302.845 21585911.453 -4431187.409 10 0 59818 78300.00000 0 13230569.516 21784353.291 -1206141.085 10 0 59818 79200.00000 0 13398737.012 21618016.857 2042314.287 10 0 59818 80100.00000 0 13320381.682 21118617.768 5251125.013 10 0 59818 81000.00000 0 12955691.150 20328710.970 8357999.792 10 0 59818 81900.00000 0 12275367.705 19299790.856 11302618.677 10 0 59818 82800.00000 0 11262099.432 18090033.923 14027803.933 10 0 59818 83700.00000 0 9911536.089 16761779.139 16480629.965 10 0 59818 84600.00000 0 8232727.520 15378852.105 18613450.781 10 0 59818 85500.00000 0 6248004.930 14003845.532 20384825.062 99